DW5212 Weather Reports


time (UTC)temp
F
wind
direction
speed
knots
gust
knots
rain 1hr
in
rain 24hr
in
rain mn
in
humidity
%
barometer
mb
20260904225503 89 44 1.7 4.3 0.00 0.00 0.00 62 1013.0
20260904224004 90 54 1.7 3.5 0.00 0.00 0.00 61 1012.5
20260904223503 91 78 0.9 3.5 0.00 0.00 0.00 59 1012.6
20260904223005 91 46 0.0 2.6 0.00 0.00 0.00 57 1012.5
20260904222503 91 105 0.0 0.0 0.00 0.00 0.00 59 1012.4
20260904222004 91 106 0.0 0.0 0.00 0.00 0.00 60 1012.3
20260904221505 91 106 0.0 0.0 0.00 0.00 0.00 61 1012.4
20260904221006 91 106 0.0 0.0 0.00 0.00 0.00 60 1012.3
20260904220504 91 105 0.0 0.9 0.00 0.00 0.00 59 1012.3
20260904220007 92 106 0.0 2.6 0.00 0.00 0.00 60 1012.3
20260904215504 92 81 0.0 0.0 0.00 0.00 0.00 59 1012.3
20260904215004 92 90 0.0 0.0 0.00 0.00 0.00 59 1012.3
20260904214505 92 90 0.0 0.0 0.00 0.00 0.00 57 1012.3
20260904214005 93 90 0.0 0.9 0.00 0.00 0.00 56 1012.3
20260904213505 94 90 0.0 1.7 0.00 0.00 0.00 56 1012.3
20260904213005 94 93 0.0 0.9 0.00 0.00 0.00 54 1012.3
20260904212504 95 93 0.0 0.9 0.00 0.00 0.00 54 1012.3
20260904212006 95 38 0.0 1.7 0.00 0.00 0.00 55 1012.4
20260904211503 94 202 0.0 0.0 0.00 0.00 0.00 53 1012.5
20260904211004 94 39 0.0 0.0 0.00 0.00 0.00 54 1012.5
20260904210503 94 34 0.9 2.6 0.00 0.00 0.00 54 1012.5
20260904210007 94 162 0.9 6.1 0.00 0.00 0.00 53 1012.5
20260904205504 94 147 0.9 4.3 0.00 0.00 0.00 55 1012.7
20260904205006 94 288 0.9 4.3 0.00 0.00 0.00 54 1012.8
20260904204504 94 165 0.9 4.3 0.00 0.00 0.00 53 1012.7
20260904203503 93 124 0.9 1.7 0.00 0.00 0.00 57 1012.9
20260904203005 93 171 0.9 2.6 0.00 0.00 0.00 56 1012.9
20260904202504 93 279 0.9 2.6 0.00 0.00 0.00 58 1013.1
20260904202006 93 78 0.0 1.7 0.00 0.00 0.00 58 1013.1
20260904201506 93 63 0.0 0.0 0.00 0.00 0.00 58 1013.3
20260904201004 93 28 0.0 0.0 0.00 0.00 0.00 59 1013.4
20260904200008 92 287 0.9 2.6 0.00 0.00 0.00 60 1013.6
20260904195503 92 55 0.9 2.6 0.00 0.00 0.00 60 1013.7
20260904195005 92 134 0.9 1.7 0.00 0.00 0.00 60 1013.8
20260904194005 93 64 0.9 2.6 0.00 0.00 0.00 56 1013.8
20260904193503 93 108 0.9 2.6 0.00 0.00 0.00 56 1013.8
20260904193007 93 145 0.9 1.7 0.00 0.00 0.00 58 1013.8
20260904192504 93 33 0.9 7.0 0.00 0.00 0.00 56 1013.9
20260904192006 94 119 1.7 7.0 0.00 0.00 0.00 56 1013.9
20260904191505 94 114 0.9 2.6 0.00 0.00 0.00 56 1014.0
20260904191005 94 81 0.9 3.5 0.00 0.00 0.00 55 1014.0
20260904190005 93 304 0.0 1.7 0.00 0.00 0.00 57 1014.2
20260904185503 93 242 0.0 0.0 0.00 0.00 0.00 57 1014.1
20260904185004 93 240 0.0 0.0 0.00 0.00 0.00 58 1014.3
20260904184503 93 240 0.0 0.0 0.00 0.00 0.00 56 1014.2
20260904184004 94 232 0.0 0.0 0.00 0.00 0.00 56 1014.2
20260904183503 93 261 0.0 0.0 0.00 0.00 0.00 59 1014.3
20260904183004 93 53 0.0 0.9 0.00 0.00 0.00 58 1014.4
20260904182503 93 54 0.9 2.6 0.00 0.00 0.00 56 1014.4
20260904182003 94 54 0.9 2.6 0.00 0.00 0.00 55 1014.4
20260904181003 94 92 0.9 2.6 0.00 0.00 0.00 56 1014.5
20260904180006 94 204 0.9 3.5 0.00 0.00 0.00 56 1014.6
20260904175503 94 157 0.9 4.3 0.00 0.00 0.00 60 1014.8
20260904174503 92 151 0.0 0.0 0.00 0.00 0.00 61 1014.9
20260904174003 91 86 0.0 0.0 0.00 0.00 0.00 61 1015.0
20260904173502 92 85 0.0 0.0 0.00 0.00 0.00 61 1015.2
20260904173003 92 85 0.0 0.0 0.00 0.00 0.00 59 1015.3
20260904172502 93 85 0.0 0.0 0.00 0.00 0.00 58 1015.2
20260904172004 93 114 0.0 0.0 0.00 0.00 0.00 59 1015.6
20260904171505 93 60 0.9 1.7 0.00 0.00 0.00 60 1015.5
20260904171004 93 11 0.9 2.6 0.00 0.00 0.00 58 1015.6
20260904170503 93 50 0.9 2.6 0.00 0.00 0.00 57 1015.7
20260904170007 93 86 0.9 2.6 0.00 0.00 0.00 58 1015.8
20260904165005 93 144 0.9 3.5 0.00 0.00 0.00 59 1015.8
20260904164506 93 355 0.0 2.6 0.00 0.00 0.00 59 1015.8
20260904163504 93 348 0.9 2.6 0.00 0.00 0.00 61 1015.8
20260904163006 93 46 0.9 2.6 0.00 0.00 0.00 62 1015.8
20260904162504 92 130 0.9 2.6 0.00 0.00 0.00 63 1015.7
20260904162006 92 248 0.0 0.9 0.00 0.00 0.00 63 1015.8
20260904161505 91 274 0.0 1.7 0.00 0.00 0.00 64 1015.8
20260904160504 90 61 0.0 0.9 0.00 0.00 0.00 65 1016.0
20260904160006 90 65 0.9 1.7 0.00 0.00 0.00 67 1015.9
20260904155503 89 65 0.9 1.7 0.00 0.00 0.00 65 1016.0
20260904155004 89 44 0.0 1.7 0.00 0.00 0.00 66 1015.8
20260904154504 89 34 0.0 0.0 0.00 0.00 0.00 68 1015.8
20260904153503 88 53 0.0 2.6 0.00 0.00 0.00 67 1015.9
20260904153005 88 53 0.9 2.6 0.00 0.00 0.00 68 1016.0
20260904152504 88 53 0.9 2.6 0.00 0.00 0.00 68 1016.0
20260904152005 88 80 0.9 1.7 0.00 0.00 0.00 70 1015.9
20260904151005 87 118 0.0 0.0 0.00 0.00 0.00 72 1015.8
20260904150503 87 118 0.0 0.0 0.00 0.00 0.00 75 1015.7
20260904150006 86 118 0.0 0.0 0.00 0.00 0.00 77 1015.8
20260904145504 85 117 0.0 0.0 0.00 0.00 0.00 78 1015.9
20260904145005 85 117 0.0 0.9 0.00 0.00 0.00 79 1015.8
20260904144504 84 117 0.0 1.7 0.00 0.00 0.00 81 1015.8
20260904144003 83 117 0.0 1.7 0.00 0.00 0.00 83 1015.7
20260904143503 82 197 0.0 0.0 0.00 0.00 0.00 85 1015.9
20260904143004 81 197 0.0 0.0 0.00 0.00 0.00 87 1015.9
20260904142504 80 197 0.0 0.0 0.00 0.00 0.00 90 1015.9
20260904142005 79 197 0.0 0.0 0.00 0.00 0.00 91 1015.9
20260904141504 78 197 0.0 0.0 0.00 0.00 0.00 92 1015.9
20260904141004 78 196 0.0 0.0 0.00 0.00 0.00 93 1015.8
20260904140504 77 197 0.0 0.0 0.00 0.00 0.00 93 1015.8
20260904140006 77 197 0.0 0.0 0.00 0.00 0.00 94 1015.9
20260904135504 77 197 0.0 0.0 0.00 0.00 0.00 94 1015.8
20260904135006 76 196 0.0 0.0 0.00 0.00 0.00 95 1015.7
20260904134503 76 197 0.0 0.0 0.00 0.00 0.00 95 1015.7
20260904133503 75 197 0.0 0.0 0.00 0.00 0.00 95 1015.5
20260904133006 75 197 0.0 0.0 0.00 0.00 0.00 94 1015.6
20260904132503 74 196 0.0 0.0 0.00 0.00 0.00 94 1015.6
20260904132004 74 197 0.0 0.0 0.00 0.00 0.00 94 1015.5
20260904131504 74 197 0.0 0.0 0.00 0.00 0.00 94 1015.5
20260904131003 74 197 0.0 0.0 0.00 0.00 0.00 94 1015.5
20260904130503 74 197 0.0 0.0 0.00 0.00 0.00 94 1015.5
20260904130004 74 196 0.0 0.0 0.00 0.00 0.00 94 1015.3
20260904125004 73 197 0.0 0.0 0.00 0.00 0.00 94 1015.5
20260904124003 73 197 0.0 0.0 0.00 0.00 0.00 93 1015.3
20260904123504 73 197 0.0 0.0 0.00 0.00 0.00 93 1015.3
20260904122503 73 197 0.0 0.0 0.00 0.00 0.00 93 1015.2
20260904122004 73 196 0.0 0.0 0.00 0.00 0.00 93 1015.3
20260904121505 73 197 0.0 0.0 0.00 0.00 0.00 93 1015.3
20260904121004 73 197 0.0 0.0 0.00 0.00 0.00 93 1015.2
20260904120502 73 197 0.0 0.0 0.00 0.00 0.00 93 1015.1
20260904120006 73 196 0.0 0.0 0.00 0.00 0.00 93 1015.1
20260904115504 73 197 0.0 0.0 0.00 0.00 0.00 93 1015.0
20260904115004 73 197 0.0 0.0 0.00 0.00 0.00 93 1014.8
20260904114503 73 197 0.0 0.0 0.00 0.00 0.00 93 1014.8
20260904114003 73 197 0.0 0.0 0.00 0.00 0.00 92 1014.6
20260904113004 73 197 0.0 0.0 0.00 0.00 0.00 93 1014.6
20260904112503 73 197 0.0 0.0 0.00 0.00 0.00 93 1014.6
20260904112004 73 196 0.0 0.0 0.00 0.00 0.00 93 1014.6
20260904111503 74 197 0.0 0.0 0.00 0.00 0.00 93 1014.6
20260904111003 74 197 0.0 0.0 0.00 0.00 0.00 93 1014.6
20260904110502 74 197 0.0 0.0 0.00 0.00 0.00 93 1014.5
20260904110006 74 196 0.0 0.0 0.00 0.00 0.00 93 1014.5
20260904105503 73 197 0.0 0.0 0.00 0.00 0.00 93 1014.4
20260904105004 74 197 0.0 0.0 0.00 0.00 0.00 93 1014.5
20260904104503 74 197 0.0 0.0 0.00 0.00 0.00 93 1014.5
20260904104004 74 197 0.0 0.0 0.00 0.00 0.00 92 1014.4
20260904103503 74 197 0.0 0.0 0.00 0.00 0.00 92 1014.4
20260904103004 74 196 0.0 0.0 0.00 0.00 0.00 92 1014.4
20260904102503 74 197 0.0 0.0 0.00 0.00 0.00 92 1014.4
20260904102006 74 197 0.0 0.0 0.00 0.00 0.00 92 1014.4
20260904101503 74 197 0.0 0.0 0.00 0.00 0.00 92 1014.4
20260904101003 74 197 0.0 0.0 0.00 0.00 0.00 92 1014.4
20260904100005 74 197 0.0 0.0 0.00 0.00 0.00 92 1014.4
20260904095503 74 197 0.0 0.0 0.00 0.00 0.00 92 1014.3
20260904095004 74 197 0.0 0.0 0.00 0.00 0.00 92 1014.3
20260904094504 75 197 0.0 0.0 0.00 0.00 0.00 92 1014.3
20260904093504 75 197 0.0 0.0 0.00 0.00 0.00 92 1014.4
20260904093003 75 197 0.0 0.0 0.00 0.00 0.00 92 1014.4
20260904092004 75 197 0.0 0.0 0.00 0.00 0.00 92 1014.4
20260904091552 75 197 0.0 0.0 0.00 0.00 0.00 92 1014.4
20260904090502 75 197 0.0 0.0 0.00 0.00 0.00 91 1014.4
20260904090005 75 196 0.0 0.0 0.00 0.00 0.00 91 1014.2
20260904085502 75 197 0.0 0.0 0.00 0.00 0.00 91 1014.1
20260904085004 75 197 0.0 0.0 0.00 0.00 0.00 91 1014.1
20260904084505 75 197 0.0 0.0 0.00 0.00 0.00 91 1014.0
20260904084003 75 197 0.0 0.0 0.00 0.00 0.00 91 1014.1
20260904083504 75 197 0.0 0.0 0.00 0.00 0.00 91 1014.0
20260904083004 75 197 0.0 0.0 0.00 0.00 0.00 91 1014.0
20260904082502 75 197 0.0 0.0 0.00 0.00 0.00 91 1013.8
20260904082006 75 197 0.0 0.0 0.00 0.00 0.00 91 1013.9
20260904081503 75 196 0.0 0.0 0.00 0.00 0.00 91 1014.1
20260904081004 75 197 0.0 0.0 0.00 0.00 0.00 92 1014.1
20260904080502 75 196 0.0 0.0 0.00 0.00 0.00 92 1014.0
20260904080005 75 197 0.0 0.0 0.00 0.00 0.00 92 1013.8
20260904075502 75 196 0.0 0.0 0.00 0.00 0.00 92 1014.0
20260904075003 75 197 0.0 0.0 0.00 0.00 0.00 92 1013.9
20260904074004 75 197 0.0 0.0 0.00 0.00 0.00 92 1013.8
20260904073503 75 197 0.0 0.0 0.00 0.00 0.00 92 1013.8
20260904073003 75 197 0.0 0.0 0.00 0.00 0.00 92 1013.8
20260904072503 75 197 0.0 0.0 0.00 0.00 0.00 91 1013.9
20260904072005 75 197 0.0 0.0 0.00 0.00 0.00 91 1014.0
20260904071503 75 196 0.0 0.0 0.00 0.00 0.00 91 1013.8
20260904071003 75 197 0.0 0.0 0.00 0.00 0.00 91 1013.7
20260904070503 76 197 0.0 0.0 0.00 0.00 0.00 91 1013.8
20260904070005 76 197 0.0 0.0 0.00 0.00 0.00 91 1013.7
20260904065502 75 197 0.0 0.0 0.00 0.00 0.00 92 1013.7
20260904065003 75 197 0.0 0.0 0.00 0.00 0.00 92 1013.9
20260904064505 75 197 0.0 0.0 0.00 0.00 0.00 92 1013.7
20260904064004 75 197 0.0 0.0 0.00 0.00 0.00 91 1013.7
20260904063503 75 197 0.0 0.0 0.00 0.00 0.00 91 1013.6
20260904063005 76 196 0.0 0.0 0.00 0.00 0.00 91 1013.6
20260904062503 76 197 0.0 0.0 0.00 0.00 0.00 90 1013.6
20260904062003 76 197 0.0 0.0 0.00 0.00 0.00 90 1013.6
20260904061004 76 197 0.0 0.0 0.00 0.00 0.00 90 1013.7
20260904060502 76 197 0.0 0.0 0.00 0.00 0.00 90 1013.7
20260904060006 76 197 0.0 0.0 0.00 0.00 0.00 90 1013.6
20260904055503 77 197 0.0 0.0 0.00 0.00 0.00 90 1013.6
20260904055003 77 197 0.0 0.0 0.00 0.00 0.00 90 1013.6
20260904054503 77 197 0.0 0.0 0.00 0.00 0.00 90 1013.5
20260904054004 77 197 0.0 0.0 0.00 0.00 0.00 89 1013.7
20260904053504 77 197 0.0 0.0 0.00 0.00 0.00 89 1013.6
20260904052506 77 197 0.0 0.0 0.00 0.00 0.00 89 1013.7
20260904052005 77 197 0.0 0.0 0.00 0.00 0.00 89 1013.6
20260904051504 77 197 0.0 0.0 0.00 0.00 0.00 89 1013.5
20260904051004 77 197 0.0 0.0 0.00 0.00 0.00 89 1013.3
20260904050005 77 197 0.0 0.0 0.00 0.00 0.00 89 1013.6
20260904045504 77 197 0.0 0.0 0.00 0.00 0.00 89 1013.6
20260904045004 77 197 0.0 0.0 0.00 0.00 0.00 88 1013.5
20260904044505 78 197 0.0 0.0 0.00 0.00 0.00 88 1013.5
20260904043503 78 197 0.0 0.0 0.00 0.00 0.00 88 1013.4
20260904043005 78 197 0.0 0.0 0.00 0.00 0.00 88 1013.4
20260904042503 78 197 0.0 0.0 0.00 0.00 0.00 87 1013.5
20260904042005 78 197 0.0 0.0 0.00 0.00 0.00 87 1013.6
20260904041504 78 197 0.0 0.0 0.00 0.00 0.00 88 1013.5
20260904040503 78 197 0.0 0.0 0.00 0.00 0.00 87 1013.7
20260904040005 78 197 0.0 0.0 0.00 0.00 0.00 87 1013.7
20260904035004 78 197 0.0 0.0 0.00 0.00 0.00 87 1013.6
20260904034503 78 197 0.0 0.0 0.00 0.00 0.00 87 1013.8
20260904034004 78 197 0.0 0.0 0.00 0.00 0.00 86 1013.8
20260904033503 79 197 0.0 0.0 0.00 0.00 0.00 86 1013.9
20260904033004 79 197 0.0 0.0 0.00 0.00 0.00 86 1013.9
20260904032504 79 197 0.0 0.0 0.00 0.00 0.00 86 1013.9
20260904032004 79 197 0.0 0.0 0.00 0.00 0.00 86 1013.8
20260904031503 79 197 0.0 0.0 0.00 0.00 0.00 86 1013.6
20260904031004 79 197 0.0 0.0 0.00 0.00 0.00 85 1013.6
20260904030502 79 197 0.0 0.0 0.00 0.00 0.00 85 1013.4
20260904030005 79 197 0.0 0.0 0.00 0.00 0.00 85 1013.5
20260904025503 79 197 0.0 0.0 0.00 0.00 0.00 84 1013.5
20260904024004 80 197 0.0 0.0 0.00 0.00 0.00 83 1013.5
20260904022005 81 197 0.0 0.0 0.00 0.00 0.00 81 1013.5
20260904021503 81 197 0.0 0.0 0.00 0.00 0.00 80 1013.4
20260904020503 82 197 0.0 0.0 0.00 0.00 0.00 79 1013.3
20260904020005 82 197 0.0 0.0 0.00 0.00 0.00 79 1013.4
20260904015503 82 197 0.0 0.0 0.00 0.00 0.00 78 1013.4
20260904015004 82 197 0.0 0.0 0.00 0.00 0.00 78 1013.3
20260904014503 82 197 0.0 0.0 0.00 0.00 0.00 78 1013.3
20260904014004 83 197 0.0 0.0 0.00 0.00 0.00 77 1013.3
20260904013503 83 197 0.0 0.0 0.00 0.00 0.00 77 1013.2
20260904013004 83 197 0.0 0.0 0.00 0.00 0.00 76 1013.1
20260904012503 84 197 0.0 0.0 0.00 0.00 0.00 76 1013.1
20260904012004 84 197 0.0 0.0 0.00 0.00 0.00 75 1013.1
20260904011504 84 197 0.0 0.0 0.00 0.00 0.00 74 1013.2
20260904011003 84 197 0.0 0.0 0.00 0.00 0.00 73 1013.3
20260904010503 85 197 0.0 0.0 0.00 0.00 0.00 73 1013.2
20260904010004 85 197 0.0 0.0 0.00 0.00 0.00 73 1013.3
20260904005503 85 197 0.0 0.0 0.00 0.00 0.00 73 1013.4
20260904005004 86 197 0.0 0.0 0.00 0.00 0.00 73 1013.4
20260904004503 86 197 0.0 0.0 0.00 0.00 0.00 72 1013.4
20260904004003 86 197 0.0 0.0 0.00 0.00 0.00 70 1013.3
20260904003503 87 197 0.0 0.0 0.00 0.00 0.00 70 1013.3
20260904002503 87 197 0.0 3.5 0.00 0.00 0.00 69 1013.2
20260904002004 87 196 0.9 3.5 0.00 0.00 0.00 69 1013.1
20260904001503 87 258 0.9 4.3 0.00 0.00 0.00 68 1013.1
20260903235504 89 202 1.7 4.3 0.00 0.00 0.00 67 1012.5
20260903235004 89 221 0.9 3.5 0.00 0.00 0.00 66 1012.5
20260903234503 89 172 0.9 3.5 0.00 0.00 0.00 67 1012.5
20260903233503 90 178 0.9 6.1 0.00 0.00 0.00 65 1012.4
20260903233004 90 160 0.0 6.1 0.00 0.00 0.00 64 1012.5
20260903232502 90 240 0.0 2.6 0.00 0.00 0.00 65 1012.4
20260903232003 91 209 0.0 0.9 0.00 0.00 0.00 59 1012.3
20260903231504 91 245 0.9 2.6 0.00 0.00 0.00 58 1012.3
20260903231004 91 238 0.9 2.6 0.00 0.00 0.00 57 1012.3
20260903230503 91 241 0.9 3.5 0.00 0.00 0.00 56 1012.3
20260903230007 91 198 0.9 3.5 0.00 0.00 0.00 56 1012.4